Location: ????????
(37.6846°N, 24.0673°E)
Time: 12:02:57
(UTC+00:00)

Cosmos 1908 Rocket - Pass Details

Date: 14 July 2020
Orbit: 605 x 633 km, 82.5° (Epoch: 09 August)

Event Time Altitude Azimuth Distance (km) Brightness Sun altitude
Exits shadow 01:28:44 28° 190° (S) 1,184 4.5 -17.3°
Maximum altitude 01:31:04 84° 277° (W) 642 3.5 -17.0°
Drops below altitude 10° 01:35:34 10° 6° (N) 2,020 6.9 -16.3°
Sets 01:37:48 0° 7° (N) 2,929 7.9 -16.0°
